Location: Morosaglia
(42.4360°N, 9.3069°E)
Time: 21:30:19
(UTC+00:00)

Cosmos 1076 Rocket - Pass Details

Date: 07 June 2020
Orbit: 588 x 614 km, 82.5° (Epoch: 14 July)

Event Time Altitude Azimuth Distance (km) Brightness Sun altitude
Exits shadow 01:39:51 31° 185° (S) 1,073 4.3 -17.4°
Maximum altitude 01:41:54 87° 99° (E) 621 3.5 -17.2°
Drops below altitude 10° 01:46:18 10° 9° (N) 1,981 7.1 -16.7°
Sets 01:48:32 0° 9° (N) 2,888 8.2 -16.5°
